Погода в Навохоа

Мексика     27°04′22″N   109°26′32″W
темп.,
°C
ветер,
м/с
пор.,
м/с
влажн.,
%
обл.,
%
осадки,
мм/ч
давл.,
гПа
погр.,
м
16 мая, вс
вс1623:00+24ююв33460 0.0 101138
02:00+23ююв22560 0.0 101121
05:00+22вюв22590 0.0 101117
08:00+28юв24370 0.0 1013551
11:00+34ю66194 0.0 10121569
14:00+35ююз76160 0.0 10111478
17:00+32юз55170 0.0 1010971
20:00+25юз22420 0.0 101119
17 мая, пн
пн1723:00+23зюз11500 0.0 101111
02:00+22зсз22520 0.0 101112
05:00+21ссз22570 0.0 101117
08:00+26ссз33320 0.0 1012469
11:00+33зсз33130 0.0 10111570
14:00+36зюз75100 0.0 10092083
17:00+33з54110 0.0 10091239
20:00+25з36290 0.0 1010100
18 мая, вт
вт1823:00+23сз22250 0.0 101127
02:00+21ссз11290 0.0 101011
05:00+20сз11360 0.0 101011
08:00+26юз01240 0.0 1011358
11:00+32ююз44150 0.0 10101810
14:00+34юз75160 0.0 10082169
17:00+32зюз65190 0.0 10071483
20:00+25юз34374 0.0 100956
19 мая, ср
ср1923:00+23ююв22500 0.0 101023
02:00+21ю22550 0.0 100911
05:00+21вюв2254100 0.0 101013
08:00+26юв13330 0.0 1011513
11:00+33ю44201 0.0 10101848
14:00+35ююз75190 0.0 10082085
17:00+32юз64300 0.0 10071159
20:00+25ююз34550 0.0 1009107
20 мая, чт
чт2023:00+23ююв22634 0.0 101037
02:00+22ююв23605 0.0 100944
05:00+21юв33660 0.0 101029
08:00+27ююв344014 0.0 1010564
11:00+32ю5430100 0.0 10101289
14:00+34ююз76255 0.0 10071388
17:00+32ююз652213 0.0 10061003
20:00+25ю34524 0.0 100755